Wind_Speed
24 24 23 22 22 22 21 21 21 21 22 22 22 22 22 21 19 19 19 18 18 19 20 21 22 24 25 25 26 27 28 28 28 28 28 27 28 30 31 31 31 32
25 23 22 21 21 21 21 21 22 22 23 23 23 23 22 20 19 19 18 17 18 19 19 20 21 23 24 25 26 27 27 28 29 29 29 29 30 31 31 31 31 33
24 22 21 20 20 20 21 22 23 23 23 23 23 22 20 19 18 17 17 17 18 19 20 20 21 22 23 25 26 27 26 27 29 30 30 30 31 32 33 33 33 34
22 20 19 19 19 20 22 23 24 24 23 23 21 20 18 17 16 16 17 17 18 19 20 21 21 22 23 24 25 25 26 26 27 28 29 29 30 32 33 34 34 35
21 19 19 19 20 21 23 23 24 24 23 22 20 19 17 16 15 15 16 17 18 19 19 20 21 22 23 23 23 23 24 25 25 25 26 27 28 30 31 33 34 34
20 20 20 21 22 22 23 23 23 23 22 21 20 19 17 16 15 15 15 15 16 17 18 19 20 21 22 22 22 22 22 23 25 26 27 27 27 29 30 32 34 34
20 21 21 22 22 22 23 23 23 23 21 21 21 20 18 17 15 15 15 15 15 16 17 18 18 19 20 21 21 21 21 22 24 25 26 27 27 29 30 33 35 36
21 21 21 21 21 22 22 23 22 21 20 19 19 19 18 17 16 16 16 16 15 16 17 17 17 17 18 19 20 20 20 21 22 22 23 23 24 26 28 31 34 37
20 20 20 20 20 21 22 23 22 21 20 19 19 19 18 17 17 16 17 17 17 17 17 17 17 17 18 19 19 20 19 19 20 22 23 24 24 24 25 28 32 35
19 18 18 19 20 22 22 23 23 22 21 20 20 19 18 18 18 17 18 18 18 18 18 18 18 18 18 19 20 20 20 19 20 23 24 25 26 26 28 30 33 34
18 17 18 19 21 22 23 23 22 22 22 21 20 19 18 19 19 19 19 19 20 20 20 19 19 19 20 20 20 21 21 20 21 22 24 25 26 29 31 35 37 36
17 17 18 20 21 22 22 22 22 22 21 21 21 20 19 19 19 19 19 20 21 22 21 19 19 20 21 21 21 22 22 23 23 23 25 27 28 30 34 38 41 39
17 18 19 21 21 22 22 21 21 21 21 21 22 21 20 19 19 18 19 20 22 23 21 20 20 21 22 23 23 23 24 24 24 25 27 29 30 32 35 41 42 38
18 19 20 21 22 22 21 20 20 21 21 22 22 22 21 20 19 19 19 20 22 23 22 20 20 22 23 24 24 24 25 25 25 26 28 30 31 33 37 42 41 34
18 20 21 21 22 21 19 19 20 21 21 22 22 22 21 21 20 19 19 19 20 22 22 21 21 22 23 25 26 25 26 26 25 26 29 30 32 34 38 42 38 28
19 20 21 21 21 19 18 19 21 22 22 22 22 22 21 21 21 20 19 19 20 21 22 21 22 23 24 26 26 26 26 26 25 26 28 30 32 35 39 40 33 25
19 20 21 21 20 18 18 20 22 23 22 21 21 20 19 20 20 20 19 19 20 21 22 22 22 24 26 27 26 26 26 25 24 25 27 30 31 35 39 38 31 24
19 20 21 21 20 18 19 21 22 22 22 20 19 18 18 18 18 18 18 18 20 21 21 22 22 23 25 26 25 25 25 23 23 24 26 28 30 35 38 36 34 28
20 21 21 21 20 19 20 22 22 21 20 19 19 18 17 17 16 16 17 17 18 19 19 20 21 22 24 25 24 24 23 21 22 23 24 26 29 34 37 35 37 35
21 22 22 21 20 20 20 21 21 20 19 18 18 18 18 17 15 15 16 16 17 18 18 18 19 21 23 23 24 23 20 19 20 21 23 25 27 32 36 34 37 40
22 22 22 22 21 20 20 20 21 19 18 18 18 18 18 16 15 15 15 15 16 17 17 16 17 19 21 22 22 21 19 18 18 19 21 23 26 30 33 33 35 39
23 23 23 22 22 21 20 20 20 19 18 18 18 18 17 15 14 14 14 15 16 17 16 15 16 18 19 20 21 20 19 18 18 19 20 21 24 27 30 31 32 36
24 25 24 23 22 22 20 20 20 19 19 19 18 17 17 15 14 14 15 15 16 16 16 15 16 17 18 19 20 20 19 18 18 18 20 20 21 24 26 29 30 32
26 27 26 24 23 23 21 20 20 20 20 19 18 17 16 15 14 14 14 15 15 15 15 15 16 17 18 19 20 19 18 17 17 17 19 19 20 21 23 26 28 28
28 28 27 26 25 24 23 21 21 22 21 20 19 18 16 14 13 13 13 13 14 14 15 15 16 17 18 19 19 19 18 17 16 16 17 18 19 19 20 22 25 26
29 28 28 27 26 24 24 23 23 23 22 20 19 18 16 15 14 13 13 13 14 15 15 16 17 17 17 18 19 18 17 17 17 16 16 17 18 19 18 19 21 23
Wind_Direction
322 321 321 319 317 316 315 316 318 319 320 319 318 317 316 315 313 310 305 301 298 296 294 294 292 291 292 291 290 289 288 287 285 283 279 275 272 269 268 269 269 268
323 322 321 319 317 317 317 318 320 321 321 321 320 319 319 319 318 316 314 310 305 302 299 297 294 293 293 294 293 291 290 290 289 286 282 278 275 272 269 268 268 268
323 322 321 319 318 318 319 320 321 321 321 322 321 320 320 320 320 319 318 316 312 308 305 302 299 297 296 296 296 295 294 292 290 288 285 281 279 277 275 270 267 266
322 322 320 319 319 319 320 320 320 321 322 323 322 320 320 320 320 320 318 316 313 310 307 304 302 301 299 299 298 297 297 295 293 291 288 284 280 277 278 277 273 267
322 321 320 319 320 319 319 320 320 321 322 322 321 320 319 319 319 318 316 315 313 310 308 305 304 302 300 300 300 300 301 300 299 296 292 288 283 278 277 278 278 274
321 320 320 319 319 319 319 320 320 321 322 322 321 319 318 317 316 315 316 316 314 311 309 307 304 301 300 301 303 304 304 304 303 300 296 292 288 282 278 278 278 277
319 320 319 319 319 320 321 321 321 321 321 321 320 318 315 314 313 313 315 316 315 313 313 312 308 302 299 299 302 303 306 311 312 308 304 299 294 289 284 282 280 276
319 320 319 319 320 322 322 322 321 321 320 319 318 316 313 311 311 311 312 314 315 315 315 316 313 307 302 300 301 303 310 319 321 320 318 314 309 303 296 290 285 281
318 319 319 319 321 322 322 321 320 318 317 316 315 313 311 309 307 307 308 311 313 313 313 313 311 309 306 304 303 307 313 318 321 323 324 323 322 318 313 305 296 288
318 318 318 320 321 322 321 320 318 315 314 314 313 313 312 309 306 304 305 309 311 310 309 308 307 307 307 306 305 308 312 313 315 319 321 321 321 321 319 317 311 300
317 318 319 321 322 321 318 317 314 311 311 313 314 315 315 311 306 304 303 305 307 307 306 305 305 305 305 305 305 307 308 309 311 314 316 317 319 320 320 320 317 310
316 318 321 323 322 319 316 314 312 310 309 310 311 314 316 314 310 306 304 303 304 304 303 302 302 303 304 304 304 304 304 306 307 309 311 314 316 319 320 320 319 313
316 319 323 324 323 320 317 314 312 311 309 308 308 310 313 314 312 308 304 302 302 302 300 299 299 301 303 303 303 303 303 304 305 306 308 311 314 317 319 321 320 313
317 322 325 326 323 321 319 316 314 314 311 308 307 307 308 311 311 306 300 298 299 299 298 296 297 300 302 302 304 304 304 305 305 306 307 310 314 318 322 323 320 313
319 324 326 326 325 323 320 317 316 316 313 310 308 306 306 308 308 303 298 296 296 296 295 294 295 299 301 301 303 304 305 306 307 309 309 311 316 321 326 327 321 315
321 325 326 327 327 325 320 317 317 316 314 312 309 306 305 307 308 305 300 297 296 295 295 295 296 299 300 301 303 305 305 306 308 310 310 312 318 325 330 331 323 314
322 325 327 329 330 326 319 317 317 316 314 313 311 309 310 311 310 307 302 298 297 296 296 298 299 300 301 302 304 305 304 306 308 310 312 313 321 329 331 335 332 315
323 326 328 330 331 325 319 318 318 316 315 316 316 316 316 314 310 307 304 301 300 299 300 302 303 302 302 304 307 306 305 308 310 311 313 315 324 333 333 337 344 332
324 326 328 330 330 324 319 319 319 319 319 321 323 322 319 314 309 307 305 303 301 301 302 304 304 303 303 307 310 308 307 310 311 311 313 315 324 334 336 341 350 347
324 325 326 329 328 324 320 319 320 321 321 323 325 323 318 313 309 307 306 304 303 304 305 307 307 306 309 313 314 312 311 311 311 310 312 315 323 333 339 345 352 353
323 323 324 326 327 324 320 319 319 321 321 323 324 321 316 311 308 308 309 307 306 307 309 312 313 314 317 320 319 317 315 313 311 310 311 314 319 328 341 350 352 353
320 321 321 323 325 324 321 318 318 319 319 321 322 319 314 309 309 312 312 310 309 310 313 317 318 319 322 323 321 319 318 315 311 308 308 310 314 323 340 352 351 350
316 317 318 320 322 323 319 316 315 315 316 318 319 318 313 310 314 317 315 313 312 313 315 317 319 323 325 325 323 320 319 317 313 310 308 309 310 317 333 349 352 348
312 314 317 317 319 319 317 314 312 312 313 315 317 316 312 312 317 320 318 316 316 317 317 318 321 325 327 326 323 321 320 318 316 314 312 311 311 313 323 338 347 348
310 312 315 315 314 315 314 312 310 309 310 314 316 315 312 313 317 319 318 317 320 322 322 323 325 326 327 325 323 321 322 321 320 319 318 318 318 318 320 326 336 343
308 310 312 311 310 310 311 311 310 307 307 311 315 314 311 310 310 311 312 314 318 322 324 327 329 327 326 324 322 322 323 324 324 323 323 324 324 325 327 325 327 335
Height
3181 3179 3178 3176 3175 3173 3172 3171 3169 3168 3166 3165 3164 3162 3161 3159 3157 3156 3154 3153 3151 3150 3149 3148 3146 3145 3143 3142 3142 3140 3139 3138 3137 3137 3136 3136 3136 3135 3135 3134 3133 3132
3179 3177 3176 3174 3173 3171 3170 3168 3167 3165 3164 3163 3161 3160 3158 3157 3155 3153 3152 3150 3149 3147 3146 3145 3144 3142 3141 3139 3138 3137 3136 3135 3134 3133 3132 3132 3131 3130 3130 3131 3130 3129
3177 3175 3174 3172 3171 3169 3168 3166 3165 3163 3162 3160 3159 3157 3156 3154 3153 3151 3150 3148 3147 3145 3144 3143 3141 3140 3138 3136 3135 3133 3133 3132 3131 3129 3128 3128 3128 3127 3126 3126 3127 3126
3175 3174 3172 3171 3169 3168 3166 3164 3163 3161 3160 3158 3156 3155 3154 3152 3151 3150 3148 3147 3145 3144 3142 3140 3139 3137 3136 3134 3132 3131 3130 3129 3128 3126 3125 3124 3124 3123 3122 3122 3121 3122
3173 3172 3170 3169 3167 3166 3164 3162 3161 3159 3157 3156 3154 3153 3152 3150 3149 3148 3147 3145 3144 3142 3140 3138 3136 3135 3133 3132 3130 3129 3127 3126 3124 3123 3122 3121 3120 3119 3119 3117 3115 3116
3171 3170 3168 3167 3165 3163 3162 3160 3158 3157 3155 3154 3152 3151 3150 3148 3147 3146 3145 3144 3142 3140 3138 3136 3134 3132 3131 3129 3128 3126 3125 3123 3122 3120 3119 3118 3117 3116 3115 3113 3111 3111
3169 3167 3166 3164 3163 3161 3159 3158 3156 3154 3153 3151 3150 3149 3148 3146 3145 3144 3143 3141 3140 3138 3136 3134 3132 3130 3128 3127 3125 3124 3122 3121 3119 3117 3116 3114 3113 3112 3111 3109 3107 3106
3167 3165 3164 3162 3160 3158 3157 3156 3154 3152 3151 3149 3148 3147 3145 3144 3143 3142 3140 3139 3137 3135 3133 3131 3130 3128 3127 3125 3123 3122 3120 3119 3117 3115 3113 3111 3110 3108 3107 3105 3103 3101
3165 3163 3161 3160 3158 3156 3155 3153 3152 3150 3149 3147 3146 3145 3143 3142 3140 3139 3138 3136 3134 3133 3131 3129 3127 3126 3125 3123 3121 3120 3118 3116 3114 3112 3111 3109 3107 3105 3104 3101 3099 3097
3163 3161 3160 3158 3156 3154 3153 3151 3149 3148 3146 3145 3144 3143 3141 3139 3138 3137 3135 3133 3132 3130 3128 3127 3125 3123 3122 3120 3119 3117 3116 3114 3112 3110 3108 3106 3104 3102 3100 3097 3095 3092
3160 3159 3157 3156 3154 3152 3150 3149 3147 3145 3144 3143 3141 3140 3139 3137 3135 3134 3132 3131 3129 3128 3126 3124 3122 3121 3119 3118 3116 3115 3113 3111 3110 3108 3106 3103 3101 3099 3096 3093 3090 3087
3158 3157 3155 3153 3152 3150 3148 3146 3145 3143 3141 3140 3139 3138 3136 3135 3133 3132 3130 3129 3127 3125 3123 3122 3120 3118 3117 3115 3114 3112 3110 3109 3107 3105 3103 3100 3098 3096 3092 3089 3086 3082
3156 3154 3153 3151 3149 3147 3145 3143 3142 3140 3139 3138 3136 3135 3134 3132 3131 3129 3128 3126 3125 3123 3121 3119 3118 3116 3114 3112 3111 3109 3108 3106 3104 3102 3100 3098 3095 3092 3089 3085 3081 3076
3154 3152 3150 3148 3146 3144 3142 3141 3139 3138 3137 3135 3134 3132 3131 3130 3129 3127 3125 3124 3122 3121 3119 3117 3115 3113 3112 3110 3108 3107 3105 3103 3101 3099 3097 3094 3092 3089 3085 3081 3076 3071
3151 3150 3148 3146 3144 3142 3140 3138 3137 3135 3134 3133 3131 3130 3128 3127 3126 3124 3123 3121 3120 3118 3116 3114 3113 3111 3109 3107 3106 3104 3102 3100 3099 3096 3093 3091 3088 3085 3082 3077 3072 3067
3149 3147 3146 3144 3141 3139 3138 3136 3135 3133 3132 3130 3129 3127 3126 3124 3123 3121 3120 3119 3117 3115 3113 3112 3110 3109 3107 3105 3103 3101 3099 3097 3095 3093 3090 3088 3085 3082 3078 3073 3068 3063
3147 3145 3143 3141 3139 3137 3136 3134 3132 3131 3129 3128 3126 3125 3123 3121 3120 3118 3117 3116 3115 3113 3111 3109 3108 3106 3104 3102 3100 3098 3096 3094 3092 3090 3088 3085 3082 3079 3074 3070 3065 3060
3144 3143 3141 3139 3137 3135 3134 3132 3130 3128 3127 3126 3124 3122 3121 3119 3117 3116 3115 3114 3112 3111 3109 3107 3106 3103 3101 3099 3097 3095 3093 3091 3089 3087 3085 3082 3080 3076 3072 3067 3062 3057
3142 3140 3138 3137 3135 3133 3132 3130 3128 3126 3124 3123 3122 3120 3118 3117 3115 3114 3113 3111 3110 3108 3107 3105 3103 3101 3098 3097 3095 3092 3090 3088 3086 3084 3082 3080 3077 3074 3069 3065 3060 3055
3140 3138 3136 3134 3133 3131 3129 3127 3126 3124 3122 3121 3119 3118 3116 3115 3114 3112 3110 3109 3107 3106 3104 3102 3101 3098 3096 3094 3092 3090 3087 3086 3084 3082 3080 3077 3074 3071 3067 3063 3059 3053
3137 3136 3134 3132 3131 3129 3127 3125 3123 3122 3121 3119 3117 3116 3114 3113 3111 3110 3108 3106 3105 3103 3102 3100 3098 3096 3094 3092 3090 3088 3085 3083 3081 3080 3078 3075 3072 3070 3066 3061 3058 3053
3135 3133 3132 3130 3128 3127 3125 3123 3122 3120 3119 3117 3116 3114 3112 3111 3109 3108 3106 3104 3103 3101 3100 3098 3096 3094 3092 3090 3088 3085 3083 3081 3079 3077 3075 3073 3071 3068 3065 3060 3056 3053
3133 3131 3129 3127 3126 3124 3123 3121 3119 3118 3117 3115 3114 3112 3110 3109 3107 3106 3104 3102 3101 3099 3098 3096 3094 3092 3090 3088 3085 3083 3081 3079 3077 3074 3073 3071 3069 3066 3063 3059 3056 3052
3130 3128 3127 3125 3123 3122 3120 3119 3117 3116 3114 3113 3111 3110 3108 3107 3105 3104 3102 3100 3099 3098 3096 3094 3092 3090 3087 3085 3083 3081 3079 3077 3075 3072 3070 3068 3066 3064 3061 3058 3055 3052
3127 3125 3124 3122 3121 3119 3118 3116 3115 3114 3112 3111 3109 3107 3106 3105 3103 3102 3100 3099 3097 3096 3094 3092 3090 3087 3085 3083 3081 3079 3077 3075 3073 3070 3068 3066 3064 3062 3060 3057 3054 3051
3124 3123 3121 3119 3118 3117 3115 3114 3113 3111 3110 3108 3107 3105 3104 3102 3101 3100 3098 3097 3095 3094 3092 3090 3088 3086 3083 3081 3079 3077 3075 3073 3070 3068 3066 3064 3061 3059 3057 3055 3053 3050